Location: Burland Observatory
(39.4088°N, 105.4217°W)
Time: 02:47:45
(UTC-07:00)

Vanguard 3 - Pass Details

Date: 08 December 2019
Orbit: 508 x 3263 km, 33.3° (Epoch: 19 January)

Event Time Altitude Azimuth Distance (km) Brightness Sun altitude
Rises 05:38:40 0° 178° (S) 3,478 10.6 -16.9°
Reaches altitude 10° 05:43:49 10° 140° (SE) 3,132 11.0 -16.0°
Maximum altitude 05:45:21 11° 128° (SE) 3,265 11.3 -15.7°
Drops below altitude 10° 05:47:03 10° 117° (ESE) 3,515 11.7 -15.4°
Sets 05:54:53 0° 85° (E) 5,393 12.7 -13.9°
